Location: Bergnershof
(48.9468°N, 10.9431°E)
Time: 14:43:18
(UTC+00:00)

Cosmos 2333 Rocket - Pass Details

Date: 26 June 2021
Orbit: 841 x 861 km, 70.8° (Epoch: 28 July)

Event Time Altitude Azimuth Distance (km) Brightness Sun altitude
Rises 02:21:49 0° 334° (NNW) 3,424 5.7 -7.0°
Reaches altitude 10° 02:25:35 10° 359° (N) 2,481 5.4 -6.6°
Maximum altitude 02:28:35 14° 31° (NNE) 2,181 5.8 -6.3°
Drops below altitude 10° 02:31:34 10° 63° (ENE) 2,471 6.1 -5.9°
Sets 02:35:17 0° 87° (E) 3,400 6.1 -5.5°
